Погода в Носинах

Россия / Тамбовская область     53°47′30″N   41°48′13″E
темп.,
°C
ветер,
м/с
пор.,
м/с
влажн.,
%
обл.,
%
осадки,
мм/ч
давл.,
гПа
погр.,
м
27 февраля, сб
сб2700:00+1з6149093 0.0 1003586
03:00+1з6139096 0.1 1003710
06:00+1з71395100 0.1 1000665
09:00+1з81597100 0.3 1001831
12:00−6сз81188100 0.9 1003854
15:00−8ссз71187100 1.1 1006786
18:00−9ссз51090100 0.1 1009635
21:00−11ссз4995100 0.1 1012308
28 февраля, вс
вс2800:00−13ссз479589 0.0 1012202
03:00−14сз359559 0.0 1014122
06:00−15сз35950 0.0 101590
09:00−13сз35948 0.0 1016206
12:00−10ссз348994 0.0 1016414
15:00−8ссз348998 0.1 1016510
18:00−9ссз2294100 0.1 101655
21:00−10ссз2295100 0.1 101921
1 марта, пн
пн100:00−11ссв1196100 0.1 102021
03:00−12ссз119692 0.1 102121
06:00−13ссз129674 0.0 102320
09:00−11с119367 0.0 102442
12:00−7зюз118830 0.0 1024245
15:00−6зюз239157 0.0 1024282
18:00−9зюз349657 0.0 102247
21:00−5юз479578 0.1 1021214
2 марта, вт
вт200:00−4юз51095100 0.1 1018308
03:00−3юз71395100 0.3 1015461
06:00−1зюз71396100 1.2 1011584
09:000зюз61198100 2.1 1008592
12:000зсз61198100 0.3 1006548
15:00+1сз51195100 0.7 1006730
18:00−1сз51193100 0.1 1007439
21:00−4зсз4129184 0.1 1009291
3 марта, ср
ср300:00−2сз61294100 0.1 1009565
03:00−3сз61292100 0.5 1009559
06:00−3сз5129493 0.1 1010536
09:00−3сз6119096 0.1 1011767
12:00−2сз7109099 0.1 1012872
15:00−2сз71187100 0.4 10131031
18:00−4сз5128797 0.1 1015595
21:00−6ссз5139185 0.1 1017445